Overview Statistics Trail Chart Weather Telemetry Raw packets
 

This is the latest recevied weather packets stored in our database for station/object K1RFS. If no packets are shown the sender has not sent any weather packets the latest 10 day(s).

<< 102 103 104 105 106 107 108 >>
Time Temp. Humidity Pressure Rain* Wind** Luminosity Snow
1787924918 21.67° C 55% 1005.2 hPa 0 mm - 24 W/m² -
1787924618 21.67° C 54% 1005.2 hPa 0 mm - 22 W/m² -
1787924313 21.67° C 54% 1005.3 hPa 0 mm - 24 W/m² -
1787924008 21.67° C 53% 1005 hPa 0 mm - 20 W/m² -
1787923703 22.22° C 51% 1005.2 hPa 0 mm - 12 W/m² -
1787923398 22.22° C 49% 1005.4 hPa 0 mm - 10 W/m² -
1787923093 22.22° C 47% 1004.9 hPa 0 mm - 10 W/m² -
1787922788 22.78° C 47% 1005 hPa 0 mm - 7 W/m² -
1787922488 22.78° C 46% 1005 hPa 0 mm - 4 W/m² -
1787922187 22.78° C 47% 1005 hPa 0 mm - 3 W/m² -
1787921884 22.78° C 47% 1004.9 hPa 0 mm - 2 W/m² -
1787921579 22.78° C 47% 1004.8 hPa 0 mm - 1 W/m² -
1787921273 22.78° C 47% 1005 hPa 0 mm - 1 W/m² -
1787920969 22.78° C 47% 1004.8 hPa 0 mm - 0 W/m² -
1787920669 21.67° C 47% 1004.8 hPa 0 mm - 0 W/m² -
1787920369 21.11° C 49% 1004.8 hPa 0 mm - 0 W/m² -
1787920066 21.11° C 52% 1004.6 hPa 0 mm - 0 W/m² -
1787919761 21.67° C 50% 1004.6 hPa 0 mm - 0 W/m² -
1787919461 21.67° C 49% 1004.7 hPa 0 mm - 0 W/m² -
1787919156 21.67° C 49% 1004.8 hPa 0 mm - 0 W/m² -
1787918856 21.67° C 49% 1004.6 hPa 0 mm - 0 W/m² -
1787918551 21.11° C 52% 1004.8 hPa 0 mm - 0 W/m² -
1787918249 21.11° C 52% 1004.7 hPa 0 mm - 0 W/m² -
1787917944 21.11° C 53% 1004.6 hPa 0 mm - 0 W/m² -
1787917639 21.11° C 53% 1004.5 hPa 0 mm - 0 W/m² -

* Rain latest hour (hover to see other rain measurements)
** Current wind speed in m/s (hover to see current wind gust speed)